User: anonymous   Login
Location: Miss�
(46.9484°N, 0.1922°W)
Time: 01:49:11
(UTC+00:00)
Language:

Okean O Rocket - Orbit

View from above orbital plane
View from above orbital plane
View from above satellite
View from above satellite

Ground track
Ground track

The orbit data is extracted from the following two-line orbital elements,

1 25861U 99039B   21125.30668473  .00000039  00000-0  12844-4 0  9995
2 25861  98.2064 139.8370 0015118 199.6188 170.9552 14.78636812175189
Epoch (UTC): 05 May 2021 07:21:37
Eccentricity: 0.0015118
inclination: 98.2064°
perigee height: 623 km
apogee height: 644 km
right ascension of ascending node: 139.8370°
argument of perigee: 199.6188°
revolutions per day: 14.78636812
mean anomaly at epoch: 170.9552°
orbit number at epoch: 17518

The dashed part of the orbit path shows where the satellite is in the earth's shadow,  

DLR